Location: Unspecified
(42.2730°N, 83.7130°W)
Time: 14:12:25
(UTC+00:00)

Thor Agena Rocket - Pass Details

Date: 14 December 2025
Orbit: 754 x 803 km, 99.1° (Epoch: 18 January)

Event Time Altitude Azimuth Distance (km) Brightness Sun altitude
Rises 22:59:58 0° 169° (S) 3,280 6.9 -10.2°
Reaches altitude 10° 23:02:18 10° 172° (S) 2,349 6.2 -10.6°
Maximum altitude 23:07:29 73° 256° (WSW) 823 3.8 -11.5°
Drops below altitude 10° 23:12:38 10° 342° (NNW) 2,335 6.0 -12.4°
Sets 23:14:57 0° 344° (NNW) 3,259 6.7 -12.8°
